Regional Weather Roundup
Issued by NWS Wakefield, VA

Home | Current Version | Previous Version | Text Only | Print | Product List | Glossary On
Versions: 1 2 3 4 5 6 7 8 9 10 11 12 13 14 15 16 17 18 19 20 21 22 23 24 25 26 27 28 29 30 31 32 33 34 35 36 37 38 39 40 41 42 43 44 45 46 47 48 49 50
000
ASUS41 KAKQ 281710
RWRAKQ

REGIONAL WEATHER ROUNDUP
NATIONAL WEATHER SERVICE WAKEFIELD VA
1200 PM EST FRI NOV 28 2014

Note: "fair" indicates few or no clouds below 12,000 feet with no
significant weather and/or obstructions to visibility. * = Denotes
station may not report precipitation (e.g., rain,snow,etc.),
thunder or fog.

VAZ042-051-052>054-056-281800-
NORTHERN VIRGINIA

CITY           SKY/WX    TMP DP  RH WIND       PRES   REMARKS
WASH NATIONAL  PTSUNNY   41  19  41 NW10      30.30F
DULLES         PTSUNNY   36  20  52 NW15G24   30.29F
FORT BELVOIR   PTSUNNY   40  19  43 NW14      30.30F
QUANTICO       MOSUNNY   40  18  41 N15G24    30.31F
FREDERICKSBRG* MOSUNNY   40  19  42 NW8G17    30.30F
STAFFORD*      SUNNY     38  17  42 W7        30.34F
WARRENTON      PTSUNNY   40  25  55 NW6       30.29F
CULPEPER*      MOSUNNY   37  18  44 NW6       30.31S
MANASSAS*      NOT AVBL
LEESBURG*      PTSUNNY   36  27  69 NW12      30.30F
WINCHESTER     CLOUDY    34  18  51 W16       30.28F WCI  23
FRONT ROYAL*   CLOUDY    34  18  51 NW7       30.28F
LURAY*         MOSUNNY   36  21  55 W8        30.29F
$$

VAZ048-049-060>072-079>083-281800-
CENTRAL AND SOUTH CENTRAL VIRGINIA

CITY           SKY/WX    TMP DP  RH WIND       PRES   REMARKS
RICHMOND       MOSUNNY   43  20  39 NW15G23   30.30F
CHESTERFIELD*  SUNNY     41  16  36 NW15G22   30.31F
PETERSBURG*    MOSUNNY   42  20  41 W10       30.31F
HANOVER        SUNNY     40  20  44 NW8       30.31F
TAPPAHANNOCK*  SUNNY     42  17  36 NW6       30.29F
QUINTON*       MOSUNNY   41  24  50 NW9G16    30.30F
CHARLOTTSVILLE SUNNY     37  16  42 W8        30.30F
GORDONSVILLE*  PTSUNNY   38  17  42 NW7       30.30F
ORANGE*        MOSUNNY   41  19  42 SW8       30.32F
LOUISA*        MOSUNNY   39  19  45 W5        30.29F
BUMPASS*       PTSUNNY   38  19  44 W6        30.30F
FARMVILLE*     SUNNY     44  19  36 N5        30.30F
CREWE*         SUNNY     39  15  36 NW8       30.32F
FORT PICKETT*  SUNNY     39  19  43 NW14      30.31F
CHASE CITY*    SUNNY     40  21  46 W6        30.31F
CLARKSVILLE*   SUNNY     39  19  45 N8        30.32F
SOUTH HILL*    SUNNY     39  21  48 NW5       30.37F
LAWRENCEVILLE* SUNNY     40  22  48 W7        30.31F
$$

VAZ088>098-281800-
SOUTHEAST VIRGINIA

CITY           SKY/WX    TMP DP  RH WIND       PRES   REMARKS
NORFOLK        SUNNY     42  21  43 N16       30.29F
VIRGINIA BEACH MOSUNNY   43  25  49 NW18G26   30.28F
NORFOLK NAVAL  MOSUNNY   45  23  42 NW12      30.30F
WEST POINT*    SUNNY     43  19  37 NW10G18   30.31F
SALUDA*        FAIR      40  22  48 NW13G20   30.28F
NEWPORT NEWS   SUNNY     44  22  41 N14       30.29F
LANGLEY AFB    SUNNY     41  24  50 NW13      30.29F
FORT EUSTIS    SUNNY     42  22  45 NW13      30.27F
WILLIAMSBURG*  SUNNY     46  27  46 N13G21    30.30F
HR EXEC AP*    SUNNY     41  25  52 NW10G16   30.32F
FRANKLIN*      SUNNY     41  21  45 NW8       30.31F
WAKEFIELD      SUNNY     42  20  41 NW10G16   30.30F
$$

VAZ020-022-025-037-045-281800-
WEST CENTRAL AND SOUTHWEST VIRGINIA

CITY           SKY/WX    TMP DP  RH WIND       PRES   REMARKS
STAUNTON*      SUNNY     33  15  46 W5        30.30F
WAYNESBORO*    SUNNY     31  14  50 SW3       30.28F
HOT SPRINGS VA PTSUNNY   22  13  65 W7        30.13F
LYNCHBURG      SUNNY     37  16  42 W9        30.31F
DANVILLE       SUNNY     40  19  43 NW7       30.33F
SOUTH BOSTON*  SUNNY     41  19  41 W5        30.32F
MARTINSVILLE   SUNNY     38  17  43 NW9       30.35F
ROANOKE        MOSUNNY   35  16  45 N6        30.33F
BLACKSBURG     CLOUDY    28  21  74 W8        30.30F
DUBLIN*        MOSUNNY   31  17  57 NW6       30.30F
MARION*        CLOUDY    28  18  66 W9        30.30F
HILLSVILLE*    CLOUDY    26  16  65 W8        30.26F
RICHLANDS*     CLOUDY    28  18  68 CALM      30.28F
WISE*          PTSUNNY   30  19  64 CALM      30.27F
ABINGDON*      CLOUDY    31  20  63 SW8       30.32F
$$

MDZ021>025-VAZ099-100-281800-
SOUTHERN MARYLAND AND THE DELMARVA PENINSULA

CITY           SKY/WX    TMP DP  RH WIND       PRES   REMARKS
PATUXENT RIVER MOSUNNY   41  21  44 NW16      30.27F
BAY BRIDGE APT   N/A     39  19  45 NW13G18   30.27F
LEONARDTOWN    PTSUNNY   41  21  45 NW7       30.28F
DOVER          SUNNY     39  15  38 NW21G28   30.22F
GEORGETOWN     SUNNY     41  18  39 N13G21    30.23F
EASTON         MOSUNNY   41  23  48 N17G24    30.30F
CAMBRIDGE      MOSUNNY   41  23  48 NW16G24   30.25F
SALISBURY      MOSUNNY   42  22  44 NW14G22   30.24F
OCEAN CITY     MOSUNNY   41  22  46 NW14      30.23F
WALLOPS ISLAND SUNNY     40  20  44 N10G18    30.24F
ACCOMACK*      PTSUNNY   41  23  48 N10G21    30.26F
$$

NCZ012>017-030>032-281800-
NORTH CENTRAL AND EASTERN NORTH CAROLINA

CITY           SKY/WX    TMP DP  RH WIND       PRES   REMARKS
ROANOKE RAPIDS SUNNY     41  25  52 NW6       30.32F
RALEIGH        MOSUNNY   41  19  41 VRB6      30.33F
ELIZABETH CITY MOSUNNY   46  25  43 NW12G18   30.30F
AHOSKIE*       SUNNY     40  22  48 N5        30.32F
EDENTON*         N/A     42  25  50 N13G18    30.31F
CURRITUCK*     SUNNY     42  17  36 N16       30.29F
KILL DEVIL HLS SUNNY     42  23  46 N12G18    30.27F
MANTEO         SUNNY     42  25  51 NW15G23   30.29F
CAPE HATTERAS  SUNNY     43  30  60 MISG      30.28F
TARBORO*       SUNNY     44  23  43 N7        30.33F
GOLDSBORO      SUNNY     44  21  41 N9        30.31F
WASHINGTON     SUNNY     42  23  46 N12       30.32F
GREENVILLE     SUNNY     43  23  45 N13       30.33F
NEW BERN       SUNNY     45  24  43 N12       30.33F
WILMINGTON     SUNNY     45  24  43 N13       30.33F
$$

VAZ048-281800-
ELSEWHERE

CITY           SKY/WX    TMP DP  RH WIND       PRES   REMARKS
HARRISBURG PA  CLOUDY    33  17  51 W18       30.25F WCI  22
BALTIMORE      MOSUNNY   37  17  44 NW14      30.27F
ANNAPOLIS      MOSUNNY   39  19  44 NW16      30.26F
ANDREWS AFB    MOSUNNY   37  23  56 NW13      30.27F
PHILADELPHIA   PTSUNNY   37  17  44 NW20G25   30.23F
WILDWOOD NJ*   MOSUNNY   39  18  41 NW9G18    30.19F
HENDERSON NC   SUNNY     39  17  40 NW8       30.32F
GREENSBORO     MOSUNNY   39  18  42 NW8       30.32F
ROCKY MOUNT    SUNNY     43  21  41 NW12      30.33F
$$

VAZ100-281800-
MARINE

STATION/POSITION TIME  TEMP    WIND        PRES    WAVE   SWELL
                       AIR SEA DIR/SP/G            HT/PER HT/PER
                 (UTC) (F)     (DEG/KT/KT) (MB)    (FT/S) (FT/S)
CAPE MAY NJ      1700   38 46  330/ 17/ 25 1022.9F
LEWES DE         1700   38 45  330/ 19/ 22 1023.5F
15NM E FENWICK I 1700   40 54              1022.5F   6/ 6
OCEAN-CITY-INLET 1700   39 47  350/ 15/ 19 1023.1F
WACHAPREAGUE VA  1700   42 44  310/  4/ 15 1024.5F
THOMAS POINT MD  1700   37 45  300/ 14/ 16 1025.8F
GOOSES REEF MD   1700   38     340/ 21/ 25 1025.5S
COVE POINT MD    1700   37     350/ 17/ 19 1025.0F
SOLOMONS ISLAND  1700      47                N/A
BISHOPS HEAD MD  1700   38 41  330/ 16/ 20 1024.4F
PINEY POINT MD   1700          330/ 17/ 20   N/A
POTOMAC MD       1700   40     340/ 12/ 17 1024.6F
CAMBRIDGE MD     1700   38 44  320/ 15/ 20 1024.5F
LEWISETTA VA     1700   39 45  340/ 11/ 20 1025.0F
RAPPAHANNOCK LGT 1700          340/ 19/ 21 1025.4F
STINGRAY PT      1700   40     330/ 14/ 17 1025.5F
YORK RVR RNG VA  1700   39     330/ 15/ 18 1025.0F
YORKTOWN VA      1700   39 50  340/ 14/ 17 1025.5F
JAMESTOWN VA     1700   39     360/ 14/ 19   N/A
DOMINION TERM VA 1700   39     340/ 11/ 14 1025.9F
KIPTOPEKE VA     1700      53  330/ 17/ 20   N/A
CHES BAY BRIDGE  1700   39 49  320/ 16/ 21 1025.2F
CAPE HENRY VA    1700   39     330/ 18/ 20 1024.2F
CHESAPEAKE LGHT  1600   39     330/ 18/ 22 1026.1R
WILLOUBY STN VA  1700   39     350/ 14/ 17 1024.3F
S CRANEY ISL VA  1700          310/ 10/ 16 1025.5F
CAPE HENRY BUOY  1700      55                N/A     5/ 6
1ST LANDING BUOY 1700   41     330/ 17/ 21 1025.1F
CAPE CHARLES BUO 1700      53                N/A     4/ 5   2/ 9
64NM E OF VA BCH 1700   44 64  350/ 19/ 25 1023.3F   7/ 8   2/10
DUCK PIER NC     1700   40 52  340/ 19/ 25 1024.3F
44100 DUCK FRF   1700      56                N/A     7/ 7   2/13
44056 DUCK FRF   1700      54                N/A     5/ 6   2/13
OREGON INLET NC  1700   42 51  320/ 14/ 20 1025.1F
HATTERAS NC      1700   41 52  350/ 17/ 20 1025.6F
CAPE LOOKOUT NC  1600   42      10/ 18/ 22 1026.7S
$$


USA.gov is the U.S. government's official web portal to all federal, state and local government web resources and services.